Weather History for Kirksville, MO

Change the Weather History Date:

Sunday, March 10, 2013

  Actual Average Record
Temperature  
Mean Temperature 40 °F 38 °F  
Max Temperature 48 °F 48 °F 75 °F (1955)
Min Temperature 32 °F 28 °F -1 °F (1934)
Degree Days  
Heating Degree Days 25 27  
Month to date heating degree days 359 287  
Since 1 July heating degree days 4739 4820  
Cooling Degree Days 0 0  
Month to date cooling degree days 0 0  
Year to date cooling degree days 0 0  
Moisture  
Dew Point 41 °F    
Average Humidity 100    
Maximum Humidity 100    
Minimum Humidity 100    
Precipitation  
Precipitation 0.68 in 0.10 in 2.03 in (1923)
Month to date precipitation 2.63 0.82  
Year to date precipitation 8.08 3.62  
Sea Level Pressure  
Sea Level Pressure 29.66 in    
Wind  
Wind Speed 8 mph (SW)    
Max Wind Speed 22 mph    
Max Gust Speed 25 mph    
Visibility 2 miles    
Events Fog , Rain    
T = Trace of Precipitation, MM = Missing Value Source: NWS Daily Summary

Daily Weather History Graph

Daily Weather History Graph

Search for Another Location

Airport:

Trip Planner

Search our weather history database for the weather conditions in past years. The results will help you decide how hot, cold, wet, or windy it might be!

Date:

Astronomy

Mar. 10, 2013 Rise Set
Actual Time 7:29 AM CDT 7:12 PM CDT
Civil Twilight 7:02 AM CDT 7:39 PM CDT
Nautical Twilight 6:30 AM CDT 8:10 PM CDT
Astronomical Twilight 5:59 AM CDT 8:42 PM CDT
Moon 6:29 AM CDT (3/10) 6:20 PM CDT (3/10)
Length of Visible Light 12h 36m
Length of Day
11h 42m
Waning Crescent, 2% of the Moon is Illuminated
Mar 10
Waning Crescent
Mar 11
New
Mar 19
First Quarter
Mar 27
Full
Apr 2
Last Quarter

Hourly Weather History & Observations

Time (CDT) Temp. Windchill Dew Point Humidity Pressure Visibility Wind Dir Wind Speed Gust Speed Precip Events Conditions
12:03 AM 42.8 °F 36.6 °F 42.8 °F 100% 29.71 in 0.2 mi ESE 11.5 mph - 0.02 in Fog , Rain Rain
12:19 AM 42.8 °F 36.2 °F 42.8 °F 100% 29.72 in 0.2 mi ESE 12.7 mph - 0.10 in Fog , Rain Rain
12:55 AM 42.1 °F 35.7 °F 42.1 °F 100% 29.72 in 0.2 mi ESE 11.5 mph - 0.31 in Fog , Rain Rain
1:50 AM 42.8 °F 34.5 °F 42.8 °F 100% 29.64 in 1.0 mi SE 18.4 mph 25.3 mph 0.08 in Rain Light Rain
1:55 AM 43.0 °F 34.8 °F 43.0 °F 100% 29.66 in 2.0 mi SE 18.4 mph 21.9 mph 0.08 in Rain Light Rain
3:01 AM 42.8 °F 34.5 °F 42.8 °F 100% 29.59 in 1.0 mi ESE 18.4 mph - N/A   Overcast
3:13 AM 42.8 °F 34.8 °F 42.8 °F 100% 29.61 in 1.2 mi SSE 17.3 mph - 0.00 in   Overcast
3:16 AM 42.8 °F 35.1 °F 42.8 °F 100% 29.61 in 0.8 mi SSE 16.1 mph - 0.00 in   Overcast
3:35 AM 41.0 °F 33.5 °F 41.0 °F 100% 29.63 in 0.2 mi SSE 13.8 mph - 0.00 in Fog Fog
3:55 AM 39.9 °F 32.9 °F 39.9 °F 100% 29.66 in 0.2 mi SSE 11.5 mph - 0.00 in Fog Fog
4:55 AM 39.9 °F 35.8 °F 39.9 °F 100% 29.66 in 0.2 mi South 5.8 mph - N/A Fog Fog
5:25 AM 41.0 °F 38.0 °F 41.0 °F 100% 29.61 in 0.2 mi SSE 4.6 mph - N/A Fog Fog
5:37 AM 41.0 °F 38.0 °F 41.0 °F 100% 29.62 in 0.2 mi SE 4.6 mph - N/A Fog Fog
5:52 AM 41.0 °F 37.1 °F 41.0 °F 100% 29.64 in 0.2 mi South 5.8 mph - N/A Fog Fog
5:55 AM 41.0 °F 35.8 °F 41.0 °F 100% 29.68 in 0.2 mi South 8.1 mph - N/A Fog Fog
6:39 AM 42.8 °F 38.6 °F 42.8 °F 100% 29.67 in 0.2 mi South 6.9 mph - N/A Fog Fog
6:55 AM 42.8 °F 37.5 °F 42.8 °F 100% 29.67 in 0.2 mi South 9.2 mph - N/A Fog Fog
7:23 AM 42.8 °F 37.0 °F 42.8 °F 100% 29.66 in 0.2 mi South 10.4 mph - N/A Fog Fog
7:55 AM 42.1 °F 37.1 °F 42.1 °F 100% 29.66 in 0.2 mi SSE 8.1 mph - N/A Fog Fog
8:55 AM 43.0 °F 38.2 °F 43.0 °F 100% 29.73 in 0.2 mi South 8.1 mph - 0.00 in Fog , Rain Light Rain
9:26 AM 46.4 °F 42.9 °F 46.4 °F 100% 29.70 in 0.2 mi SSW 6.9 mph - 0.01 in Fog , Rain Light Rain
9:37 AM 48.2 °F - 48.2 °F 100% 29.69 in 0.5 mi SW 6.9 mph - 0.02 in Fog , Rain Light Rain
9:39 AM 48.2 °F - 48.2 °F 100% 29.68 in 1.5 mi SW 6.9 mph - 0.02 in Rain Light Rain
9:46 AM 48.2 °F - 48.2 °F 100% 29.68 in 2.5 mi SW 6.9 mph - 0.02 in Rain Light Rain
9:55 AM 48.0 °F - 48.0 °F 100% 29.68 in 1.8 mi SW 4.6 mph - 0.02 in   Overcast
10:05 AM 48.2 °F - 48.2 °F 100% 29.67 in 2.5 mi WSW 5.8 mph - 0.00 in Rain Light Rain
10:18 AM 46.4 °F 43.5 °F 46.4 °F 100% 29.68 in 3.0 mi SW 5.8 mph - 0.00 in Rain Light Rain
10:55 AM 46.0 °F 40.6 °F 46.0 °F 100% 29.73 in 5.0 mi SW 11.5 mph - 0.02 in Rain Light Rain
11:55 AM 46.0 °F 44.8 °F 46.0 °F 100% 29.69 in 10.0 mi West 3.5 mph - 0.04 in   Overcast
12:22 PM 44.6 °F - - N/A% 29.67 in 1.5 mi Calm Calm - 0.02 in Rain Light Rain
12:30 PM 44.6 °F - 44.6 °F 100% 29.67 in 0.5 mi Calm Calm - 0.03 in Fog , Rain Light Rain
12:55 PM 44.1 °F - 44.1 °F 100% 29.69 in 0.2 mi Calm Calm - 0.07 in Fog , Rain Light Rain
1:14 PM 44.6 °F - 44.6 °F 100% 29.64 in 0.2 mi Calm Calm - 0.02 in Fog , Rain Light Rain
1:22 PM 44.6 °F - 44.6 °F 100% 29.62 in 0.8 mi Calm Calm - 0.03 in Rain Light Rain
1:30 PM 44.6 °F 43.1 °F 44.6 °F 100% 29.63 in 0.2 mi ESE 3.5 mph - 0.03 in Fog , Rain Light Rain
1:51 PM 44.6 °F 43.1 °F 44.6 °F 100% 29.65 in 0.2 mi South 3.5 mph - 0.03 in Fog Fog
1:55 PM 44.1 °F - 44.1 °F 100% 29.66 in 0.2 mi Calm Calm - 0.03 in Fog Fog
2:15 PM 44.6 °F - 44.6 °F 100% 29.62 in 0.2 mi Calm Calm - 0.01 in Fog , Rain Light Rain
2:36 PM 44.6 °F - 44.6 °F 100% 29.62 in 0.2 mi Calm Calm - 0.05 in Fog , Rain Light Rain
2:45 PM 44.6 °F - - N/A% 29.62 in 0.2 mi Calm Calm - 0.07 in Rain Light Rain
2:55 PM 42.1 °F 38.4 °F 42.1 °F 100% 29.64 in 0.2 mi NNW 5.8 mph - 0.07 in Fog , Rain Light Rain
3:01 PM 41.0 °F 37.1 °F 41.0 °F 100% 29.62 in 1.0 mi NNW 5.8 mph - 0.01 in Rain Light Rain
3:22 PM 39.2 °F 35.0 °F 39.2 °F 100% 29.62 in 3.0 mi NNW 5.8 mph - 0.01 in   Overcast
3:43 PM 39.2 °F 35.9 °F 39.2 °F 100% 29.63 in 1.8 mi NNW 4.6 mph - 0.02 in Rain Light Rain
3:55 PM 39.0 °F 35.7 °F 39.0 °F 100% 29.66 in 2.0 mi North 4.6 mph - 0.03 in Rain Light Rain
4:21 PM 39.2 °F 37.0 °F 39.2 °F 100% 29.63 in 1.2 mi NE 3.5 mph - 0.01 in Rain Light Rain
4:28 PM 39.2 °F 35.9 °F 39.2 °F 100% 29.62 in 0.5 mi NE 4.6 mph - 0.02 in Fog , Rain Light Rain
4:34 PM 39.2 °F 37.0 °F 39.2 °F 100% 29.62 in 0.5 mi NE 3.5 mph - 0.02 in Fog , Rain Light Rain
4:48 PM 39.2 °F 37.0 °F 39.2 °F 100% 29.62 in 0.8 mi Variable 3.5 mph - 0.02 in   Overcast
4:53 PM 39.2 °F - 39.2 °F 100% 29.62 in 2.0 mi North - - 0.02 in   Overcast
4:55 PM 39.0 °F - 39.0 °F 100% 29.65 in 3.0 mi North - - 0.02 in   Overcast
5:13 PM 39.2 °F 37.0 °F 39.2 °F 100% 29.62 in 1.8 mi NNE 3.5 mph - N/A   Overcast
5:30 PM 39.2 °F 29.0 °F 39.2 °F 100% 29.63 in 3.0 mi North 21.9 mph 25.3 mph N/A   Overcast
5:37 PM 39.2 °F - 39.2 °F 100% 29.63 in 3.0 mi Calm Calm - N/A   Overcast
5:44 PM 39.2 °F - 39.2 °F 100% 29.63 in 2.0 mi Calm Calm - 0.00 in Rain Light Rain
5:52 PM 39.2 °F 37.0 °F 39.2 °F 100% 29.63 in 0.8 mi NW 3.5 mph - 0.00 in Rain Light Rain
5:55 PM 39.0 °F 36.8 °F 39.0 °F 100% 29.65 in 0.5 mi NW 3.5 mph - 0.00 in Fog Fog
6:05 PM 39.2 °F 35.9 °F 39.2 °F 100% 29.63 in 1.0 mi NW 4.6 mph - 0.00 in Rain Light Rain
6:16 PM 39.2 °F 35.9 °F 39.2 °F 100% 29.62 in 2.0 mi NNE 4.6 mph - 0.00 in   Overcast
6:21 PM 39.2 °F 35.9 °F 39.2 °F 100% 29.62 in 0.8 mi North 4.6 mph - 0.00 in   Overcast
6:28 PM 39.2 °F 37.0 °F 39.2 °F 100% 29.63 in 0.2 mi NW 3.5 mph - 0.00 in Fog Fog
6:55 PM 37.9 °F 34.4 °F 37.9 °F 100% 29.67 in 0.2 mi WNW 4.6 mph - 0.00 in Fog Fog
7:22 PM 37.4 °F 32.1 °F 37.4 °F 100% 29.66 in 1.0 mi WNW 6.9 mph - N/A   Mist
7:48 PM 37.4 °F 31.4 °F 37.4 °F 100% 29.66 in 3.0 mi WNW 8.1 mph - N/A   Overcast
7:55 PM 37.0 °F 30.4 °F 37.0 °F 100% 29.69 in 8.0 mi WNW 9.2 mph - N/A   Overcast
8:20 PM 35.6 °F 28.6 °F 35.6 °F 100% 29.68 in 9.0 mi WNW 9.2 mph - N/A   Overcast
8:55 PM 36.0 °F 30.3 °F 36.0 °F 100% 29.71 in 4.0 mi West 6.9 mph - N/A   Overcast
9:18 PM 35.6 °F 28.0 °F 35.6 °F 100% 29.70 in 2.0 mi West 10.4 mph 18.4 mph N/A   Overcast
9:55 PM 34.0 °F 26.0 °F 34.0 °F 100% 29.73 in 2.5 mi West 10.4 mph - N/A   Overcast
10:20 PM 33.8 °F 26.4 °F 33.8 °F 100% 29.71 in 4.0 mi West 9.2 mph - N/A   Overcast
10:55 PM 34.0 °F 27.2 °F 34.0 °F 100% 29.75 in 6.0 mi West 8.1 mph 17.3 mph N/A   Overcast
11:55 PM 33.8 °F 25.8 °F 33.8 °F 100% 29.72 in 6.0 mi West 10.4 mph - N/A   Overcast
12:34 AM 33.8 °F 24.8 °F 33.8 °F 100% 29.73 in 7.0 mi West 12.7 mph 18.4 mph N/A   Overcast
12:55 AM 32.0 °F 22.5 °F 32.0 °F 100% 29.76 in 6.0 mi West 12.7 mph 20.7 mph N/A   Overcast